Erie, CO

9:41 PM MST on February 18, 2018 (GMT -0700)
Erie Municipal Airport

Weather History for KEIK - May, 2014

Change the Weather History Date:

Sunday, May 25, 2014

  Actual Average (KBJC) Record (KBJC)
Temperature  
Mean Temperature 58 °F -  
Max Temperature 70 °F 72 °F 86 °F (2013)
Min Temperature 45 °F 49 °F 37 °F (1989)
Degree Days  
Heating Degree Days 8    
Growing Degree Days 8 (Base 50)    
Moisture  
Dew Point 46 °F    
Average Humidity 68    
Maximum Humidity 97    
Minimum Humidity 42    
Precipitation  
Precipitation 0.00 in - - ()
Sea Level Pressure  
Sea Level Pressure 30.00 in    
Wind  
Wind Speed 3 mph (West)    
Max Wind Speed 22 mph    
Max Gust Speed 38 mph    
Visibility 10 miles    
Events Rain , Thunderstorm    
Averages and records for this station are not official NWS values.
T = Trace of Precipitation, MM = Missing Value Source: NWS Daily Summary

Daily Weather History Graph

Daily Weather History Graph

Search for Another Location

Airport or City:

Trip Planner

Search our weather history database for the weather conditions in past years. The results will help you decide how hot, cold, wet, or windy it might be!

Date:

Astronomy

May. 25, 2014 Rise Set
Actual Time 5:37 AM MDT 8:17 PM MDT
Civil Twilight 5:05 AM MDT 8:49 PM MDT
Nautical Twilight 4:26 AM MDT 9:28 PM MDT
Astronomical Twilight 3:41 AM MDT 10:13 PM MDT
Moon 3:43 AM MDT (5/25) 5:21 PM MDT (5/25)
Length of Visible Light 15h 43m
Length of Day
14h 40m
Waning Crescent, 10% of the Moon is Illuminated
May 25
Waning Crescent
May 28
New
Jun 5
First Quarter
Jun 12
Full
Jun 19
Last Quarter

Hourly Weather History & Observations

Time (MDT) Temp. Windchill Dew Point Humidity Pressure Visibility Wind Dir Wind Speed Gust Speed Precip Events Conditions
12:16 AM 54.3 °F - 47.3 °F 77% 30.00 in 10.0 mi Calm Calm - N/A Thunderstorm Mostly Cloudy
12:36 AM 55.4 °F - 45.5 °F 69% 30.00 in 10.0 mi Calm Calm - N/A   Scattered Clouds
12:56 AM 54.7 °F - 46.2 °F 73% 29.99 in 10.0 mi Calm Calm - N/A   Clear
1:16 AM 51.3 °F - 46.4 °F 83% 29.97 in 10.0 mi Calm Calm - N/A   Clear
1:36 AM 50.5 °F - 46.4 °F 86% 29.97 in 10.0 mi North 3.5 mph - N/A   Clear
1:56 AM 50.0 °F - 46.4 °F 87% 29.97 in 10.0 mi Calm Calm - N/A   Clear
2:16 AM 50.7 °F - 46.8 °F 86% 29.97 in 10.0 mi Calm Calm - N/A   Clear
2:36 AM 50.4 °F - 47.1 °F 89% 29.97 in 10.0 mi SSE 4.6 mph - N/A   Clear
2:56 AM 49.8 °F - 46.4 °F 88% 29.97 in 10.0 mi Calm Calm - N/A   Clear
3:16 AM 50.0 °F - 46.8 °F 89% 29.98 in 10.0 mi Calm Calm - N/A   Clear
3:36 AM 50.2 °F - 47.3 °F 90% 29.97 in 10.0 mi SSW 4.6 mph - N/A   Clear
3:56 AM 50.0 °F - 47.1 °F 90% 29.97 in 10.0 mi SW 3.5 mph - N/A   Clear
4:16 AM 49.1 °F - 46.6 °F 91% 29.97 in 10.0 mi Calm Calm - N/A   Clear
4:36 AM 48.6 °F - 46.6 °F 93% 29.97 in 10.0 mi Calm Calm - N/A   Clear
4:56 AM 46.4 °F - 45.0 °F 95% 29.98 in 10.0 mi Calm Calm - N/A   Clear
5:16 AM 47.5 °F - 46.0 °F 95% 29.99 in 10.0 mi Calm Calm - N/A   Clear
5:36 AM 45.9 °F - 44.4 °F 95% 29.98 in 10.0 mi Calm Calm - N/A   Scattered Clouds
5:56 AM 46.6 °F - 45.5 °F 96% 29.98 in 10.0 mi Calm Calm - N/A   Scattered Clouds
6:16 AM 46.0 °F 43.9 °F 45.3 °F 97% 29.99 in 10.0 mi SSW 4.6 mph - N/A   Scattered Clouds
6:36 AM 48.4 °F - 47.5 °F 97% 29.99 in 10.0 mi SSW 3.5 mph - N/A   Scattered Clouds
6:56 AM 50.7 °F - 48.4 °F 92% 29.99 in 10.0 mi Calm Calm - N/A   Scattered Clouds
7:16 AM 53.2 °F - 49.1 °F 86% 30.00 in 10.0 mi SSW 3.5 mph - N/A   Clear
7:36 AM 55.8 °F - 49.1 °F 78% 30.00 in 10.0 mi Calm Calm - N/A   Clear
7:56 AM 57.6 °F - 50.5 °F 77% 30.00 in 10.0 mi Calm Calm - N/A   Clear
8:16 AM 59.7 °F - 49.6 °F 69% 30.00 in 10.0 mi NNW 3.5 mph - N/A   Clear
9:16 AM 63.3 °F - 46.9 °F 55% 30.01 in 10.0 mi Calm Calm - N/A   Mostly Cloudy
9:36 AM 61.7 °F - 46.6 °F 58% 30.00 in 10.0 mi Calm Calm - N/A   Mostly Cloudy
9:56 AM 63.7 °F - 47.1 °F 55% 30.00 in 10.0 mi North 6.9 mph - N/A   Overcast
10:16 AM 64.4 °F - 48.7 °F 57% 30.00 in 10.0 mi NE 5.8 mph - N/A   Scattered Clouds
10:36 AM 65.1 °F - 49.6 °F 57% 30.00 in 10.0 mi NNE 3.5 mph - N/A   Mostly Cloudy
10:56 AM 65.5 °F - 49.8 °F 57% 30.00 in 10.0 mi North 6.9 mph - N/A   Overcast
11:16 AM 66.4 °F - 50.9 °F 57% 30.00 in 10.0 mi North 5.8 mph 9.2 mph N/A   Scattered Clouds
11:36 AM 68.0 °F - 52.3 °F 57% 30.00 in 10.0 mi NNE 6.9 mph - N/A   Clear
11:56 AM 67.5 °F - 52.0 °F 58% 29.99 in 10.0 mi ENE 10.4 mph - N/A Thunderstorm Scattered Clouds
12:16 PM 68.0 °F - 51.4 °F 55% 29.99 in 10.0 mi NE 6.9 mph - N/A   Clear
12:36 PM 67.6 °F - 51.3 °F 56% 29.99 in 10.0 mi ENE 6.9 mph - N/A   Scattered Clouds
12:56 PM 68.0 °F - 50.0 °F 52% 29.98 in 10.0 mi ENE 8.1 mph - N/A   Mostly Cloudy
1:16 PM 69.6 °F - 51.3 °F 52% 29.97 in 10.0 mi East 9.2 mph - N/A   Mostly Cloudy
1:36 PM 69.4 °F - 51.1 °F 52% 29.97 in 10.0 mi NE 5.8 mph - N/A   Scattered Clouds
1:56 PM 70.3 °F - 49.6 °F 48% 29.96 in 10.0 mi East 10.4 mph - N/A   Scattered Clouds
2:16 PM 70.5 °F - 48.9 °F 46% 29.96 in 10.0 mi East 6.9 mph - N/A   Scattered Clouds
2:36 PM 70.0 °F - 47.7 °F 45% 29.96 in 10.0 mi ESE 10.4 mph - N/A Thunderstorm Scattered Clouds
2:56 PM 69.8 °F - 47.3 °F 45% 29.96 in 10.0 mi East 11.5 mph - N/A   Scattered Clouds
3:36 PM 60.6 °F - 37.2 °F 42% 30.00 in 10.0 mi SW 21.9 mph 38.0 mph N/A Thunderstorm Mostly Cloudy
3:56 PM 59.9 °F - 38.3 °F 45% 30.00 in 10.0 mi SW 20.7 mph 27.6 mph N/A   Overcast
4:16 PM 60.4 °F - 37.8 °F 43% 30.00 in 10.0 mi WSW 20.7 mph 31.1 mph N/A   Mostly Cloudy
4:36 PM 60.3 °F - 38.3 °F 44% 29.99 in 10.0 mi West 17.3 mph 29.9 mph N/A Rain Light Rain
4:56 PM 60.4 °F - 39.2 °F 45% 30.00 in 10.0 mi West 9.2 mph - N/A   Overcast
5:16 PM 61.2 °F - 39.7 °F 45% 29.98 in 10.0 mi West 3.5 mph - N/A   Overcast
5:36 PM 60.6 °F - 42.3 °F 51% 29.98 in 10.0 mi North 9.2 mph - N/A   Scattered Clouds
5:56 PM 60.3 °F - 41.0 °F 49% 29.98 in 10.0 mi WNW 8.1 mph - N/A   Clear
6:16 PM 60.8 °F - 41.2 °F 48% 29.98 in 10.0 mi West 10.4 mph - N/A   Clear
6:36 PM 60.4 °F - 39.6 °F 46% 29.98 in 10.0 mi West 9.2 mph - N/A   Clear
6:56 PM 59.5 °F - 41.0 °F 50% 29.97 in 10.0 mi West 4.6 mph - N/A   Clear
7:16 PM 61.3 °F - 42.1 °F 49% 29.98 in 10.0 mi Calm Calm - N/A   Clear
7:36 PM 61.2 °F - 43.0 °F 51% 29.99 in 10.0 mi Calm Calm - N/A   Clear
7:56 PM 60.8 °F - 42.6 °F 51% 30.00 in 10.0 mi Calm Calm - N/A   Clear
8:16 PM 58.5 °F - 44.1 °F 59% 30.02 in 10.0 mi Calm Calm - N/A   Clear
8:36 PM 55.9 °F - 44.6 °F 66% 30.03 in 10.0 mi Calm Calm - N/A   Clear
8:56 PM 53.2 °F - 45.0 °F 73% 30.04 in 10.0 mi Calm Calm - N/A   Clear
9:16 PM 50.7 °F - 45.1 °F 81% 30.05 in 10.0 mi SSW 3.5 mph - N/A   Clear
9:36 PM 49.3 °F - 44.6 °F 84% 30.06 in 10.0 mi Calm Calm - N/A   Clear
9:56 PM 51.8 °F - 44.4 °F 76% 30.07 in 10.0 mi Calm Calm - N/A   Clear
10:16 PM 50.0 °F - 44.4 °F 81% 30.07 in 10.0 mi SSW 4.6 mph - N/A   Clear
10:36 PM 48.7 °F - 44.2 °F 84% 30.07 in 10.0 mi Calm Calm - N/A   Clear
10:56 PM 48.7 °F - 44.2 °F 84% 30.08 in 10.0 mi Calm Calm - N/A   Clear
11:16 PM 48.9 °F - 44.1 °F 83% 30.07 in 10.0 mi South 4.6 mph - N/A   Clear
11:36 PM 48.6 °F - 43.5 °F 83% 30.08 in 10.0 mi SSW 5.8 mph - N/A   Scattered Clouds
11:56 PM 49.1 °F - 43.9 °F 82% 30.08 in 10.0 mi Calm Calm - N/A   Scattered Clouds